This is the latest recevied weather packets stored in our database for station/object KO4APQ. If no packets are shown the sender has not sent any weather packets the latest 10 day(s).
| Time | Temp. | Humidity | Pressure | Rain* | Wind** | Luminosity | Snow |
|---|---|---|---|---|---|---|---|
| 1777878038 | 6.67° C | 86% | 1017.8 hPa | 0 mm | - | 0 W/m² | - |
| 1777877734 | 6.67° C | 84% | 1017.7 hPa | 0 mm | - | 0 W/m² | - |
| 1777877432 | 7.22° C | 84% | 1017.8 hPa | 0 mm | - | 0 W/m² | - |
| 1777877129 | 7.22° C | 84% | 1017.9 hPa | 0 mm | - | 0 W/m² | - |
| 1777876826 | 7.22° C | 83% | 1017.9 hPa | 0 mm | - | 0 W/m² | - |
| 1777876523 | 7.78° C | 83% | 1018.1 hPa | 0 mm | - | 0 W/m² | - |
| 1777876220 | 7.78° C | 82% | 1018 hPa | 0 mm | - | 0 W/m² | - |
| 1777875916 | 7.22° C | 83% | 1018 hPa | 0 mm | - | 0 W/m² | - |
| 1777875612 | 6.67° C | 83% | 1018.1 hPa | 0 mm | - | 0 W/m² | - |
| 1777875309 | 6.67° C | 85% | 1018.3 hPa | 0 mm | - | 0 W/m² | - |
| 1777875006 | 6.67° C | 85% | 1018.1 hPa | 0 mm | - | 0 W/m² | - |
| 1777874702 | 7.22° C | 84% | 1018.3 hPa | 0 mm | - | 0 W/m² | - |
| 1777874398 | 7.22° C | 84% | 1018.2 hPa | 0 mm | - | 0 W/m² | - |
| 1777874097 | 7.22° C | 85% | 1018.4 hPa | 0 mm | - | 0 W/m² | - |
| 1777873794 | 7.22° C | 83% | 1018.3 hPa | 0 mm | - | 0 W/m² | - |
| 1777873490 | 7.78° C | 81% | 1018.4 hPa | 0 mm | - | 0 W/m² | - |
| 1777873188 | 7.78° C | 80% | 1018.4 hPa | 0 mm | - | 0 W/m² | - |
| 1777872884 | 8.33° C | 78% | 1018.3 hPa | 0 mm | - | 0 W/m² | - |
| 1777872582 | 8.33° C | 76% | 1018.3 hPa | 0 mm | - | 0 W/m² | - |
| 1777872279 | 8.33° C | 76% | 1018.2 hPa | 0 mm | - | 0 W/m² | - |
| 1777871977 | 8.89° C | 74% | 1018.3 hPa | 0 mm | - | 0 W/m² | - |
| 1777871673 | 9.44° C | 71% | 1018.3 hPa | 0 mm | - | 0 W/m² | - |
| 1777871369 | 9.44° C | 68% | 1018.2 hPa | 0 mm | - | 0 W/m² | - |
| 1777871067 | 9.44° C | 68% | 1018.4 hPa | 0 mm | - | 0 W/m² | - |
| 1777870764 | 9.44° C | 70% | 1018.2 hPa | 0 mm | - | 0 W/m² | - |
* Rain latest hour (hover to see other rain measurements)
** Current wind speed in m/s (hover to see current wind gust speed)